User: anonymous   Login
Location: Unspecified
(0.0000°N, 0.0000°E)
Time: 06:28:44
(UTC+00:00)
Language:

Transit 2A - Orbit

View from above orbital plane
View from above orbital plane
View from above satellite
View from above satellite

Ground track
Ground track

The orbit data is extracted from the following two-line orbital elements,

1 00045U 60007A   21292.94524350  .00000008  00000-0  28896-4 0  9995
2 00045  66.6939 170.9270 0260142 318.1118  40.0331 14.33744139136004
Epoch (UTC): 19 October 2021 22:41:09
Eccentricity: 0.0260142
inclination: 66.6939°
perigee height: 593 km
apogee height: 965 km
right ascension of ascending node: 170.9270°
argument of perigee: 318.1118°
revolutions per day: 14.33744139
mean anomaly at epoch: 40.0331°
orbit number at epoch: 13600

The dashed part of the orbit path shows where the satellite is in the earth's shadow,  

DLR